Location: Veytaux
(46.4185°N, 6.9320°E)
Time: 08:59:13
(UTC+00:00)

USA 305 - Pass Details

Date: 27 May 2022
Orbit: 549 x 553 km, 54.0° (Epoch: 14 June)

Event Time Altitude Azimuth Distance (km) Brightness Sun altitude
Exits shadow 00:58:13 28° 265° (W) 1,041 4.0 -19.4°
Maximum altitude 01:00:10 58° 333° (NNW) 646 3.3 -19.3°
Drops below altitude 10° 01:04:16 10° 54° (NE) 1,827 6.3 -19.0°
Sets 01:06:32 0° 58° (ENE) 2,723 7.3 -18.8°
